B.net Hrvatska D.o.o. Speed Test Log

Averages  Max Speed    
1 to 25 of 5237** for Host B net Hrvatska D o
Time
  
  Speed    Size    User ConnectID   TestID  
11/22/13 7:04:14 pm 902 kbps 113 kB/s 7.5 MB864342433726 HR KD4ilqP 
11/22/13 6:17:38 pm 5.39 Mbps 674 kB/s 5 MB17263533545932 HR Fs4P6vt 
11/22/13 12:18:04 pm 7.75 Mbps 969 kB/s 7.5 MB8643421838529 HR 15MYwfe 
11/22/13 12:02:30 pm 2.86 Mbps 357 kB/s 2.8 MB80890119523 HR mgdNrwb 
11/22/13 7:43:52 am 584 kbps 73 kB/s 576 kB808899132832 HR 6aAqExS 
11/22/13 7:43:37 am 10.37 Mbps 1.3 MB/s 9.4 MB808899132832 HR dhR6xsm 
11/21/13 10:49:04 pm 403 kbps 50 kB/s 384 kB864342500761 HR OEB7adQ 
11/21/13 8:35:53 pm 6.64 Mbps 830 kB/s 4.4 MB1726353386210 HR nqBNAS5 
11/21/13 8:34:18 pm 4.56 Mbps 570 kB/s 7.5 MB1726353386210 HR lXA3jnU 
11/21/13 8:22:07 pm 307 kbps 38 kB/s 992 kB10050883158 HR ZYIRHwu 
11/21/13 5:13:09 pm 9.26 Mbps 1.16 MB/s 7.8 MB808901337954 HR Cy4siQe 
11/21/13 1:46:34 pm 11.06 Mbps 1.38 MB/s 9.5 MB1005090372605 HR 2SUhw6W 
11/20/13 11:34:17 pm 10.45 Mbps 1.31 MB/s 7.5 MB8643415887013 HR vlr8y9N 
11/20/13 11:32:03 pm 2.83 Mbps 353 kB/s 1.6 MB10051527747 HR bf4RqED 
11/20/13 11:31:00 pm 86 kbps 11 kB/s 96 kB10051527747 HR Sh5fgbZ 
11/20/13 11:29:50 pm 6.17 Mbps 771 kB/s 4.8 MB10051527747 HR kDP9tnS 
11/20/13 11:06:06 pm 1.15 Mbps 143 kB/s 3.1 MB864342508831 HR WLwkibs 
11/20/13 10:07:05 pm 5.66 Mbps 707 kB/s 3.5 MB10051245848 HR L1u0PFc 
11/20/13 4:30:54 pm 830 kbps 104 kB/s 672 kB100510757951 HR s8Dgtm6 
11/19/13 11:46:35 pm 971 kbps 121 kB/s 800 kB10051507114 HR egj5U9n 
11/19/13 11:46:22 pm 11.16 Mbps 1.4 MB/s 11.6 MB10051507114 HR UZ1Cb9X 
11/19/13 9:44:39 pm 9.76 Mbps 1.22 MB/s 6.8 MB8088970027557 HR 2oVyxih 
11/19/13 6:08:27 pm 315 kbps 39 kB/s 256 kB8643416617162 HR s5oMFxu 
11/19/13 6:08:17 pm 1.9 Mbps 237 kB/s 1.7 MB8643416617162 HR ftduwXS 
11/19/13 6:07:45 pm 273 kbps 34 kB/s 256 kB8643416617162 HR QopDxIn 
  
** Partial Results: The most recent results have been displayed. Results over 50 Mbps are highlighted.
Calculated from graphed results above not entire query.
Displaying Internet Speed Test results for Host B.net Hrvatska D.o.o.

Minimum

Min 0.31 Mbps : 0.09 Mbps

Average

Avg 6.01 Mbps : 0.49 Mbps

Maximum

Max 11.16 Mbps : 0.97 Mbps

Minimum

Min: 0.31 Mbps : 0.09 Mbps |

Average

Avg: 6.01 Mbps : 0.49 Mbps |

Maximum

Max: 11.16 Mbps : 0.97 Mbps